全部
Onslow Airport (Onslow, Western Australia) ONS 天氣
|
Onslow, Western Australia (ONS / YOLW)
晴天
多風 |
|
31 °C |
ONS終端機場天氣預報
| Date | Time (AWST) | Flight Rules | Wind Dir. | Speed | Type | Height AGL (ft) | Visibility | Remarks | ||||||
|---|---|---|---|---|---|---|---|---|---|---|---|---|---|---|
| 04-五月 | 18:00 | VFR | 350° | 14 kt | Clouds and Visibility are OK | >= 6 miles | ||||||||
| 04-五月 | 17:00 | VFR | 350° | 14 kt | Clouds and Visibility are OK | >= 6 miles | ||||||||
| 04-五月 | 16:00 | VFR | 350° | 14 kt | Clouds and Visibility are OK | >= 6 miles | ||||||||
| 04-五月 | 15:00 | VFR | 350° | 14 kt | Clouds and Visibility are OK | >= 6 miles | ||||||||
| 04-五月 | 14:00 | VFR | 350° | 14 kt | Clouds and Visibility are OK | >= 6 miles | ||||||||
ONS近期METAR歷史資料
| Date | Time (AWST) | Flight Rules | Wind Dir. | Speed | Type | Height AGL (ft) | Visibility | Temp (°C) | Temp (°F) | Dew Point (°C) | Dew Point (°F) | Rel. Humid. | Pressure | Density Altitude | Remarks |
|---|---|---|---|---|---|---|---|---|---|---|---|---|---|---|---|
| 04-五月 | 14:00 | VFR | 10° | 12 kt | 10000 meters | 31° | 87° | 9° | 48° | 26% | 1015 mb | 1,880 ft | |||
| 04-五月 | 13:00 | VFR | 20° | 11 kt | 10000 meters | 31° | 87° | 10° | 50° | 27% | 1016 mb | 1,851 ft | |||
| 04-五月 | 12:00 | VFR | 50° | 11 kt | 10000 meters | 31° | 87° | 9° | 48° | 26% | 1017 mb | 1,821 ft | |||
| 04-五月 | 11:00 | VFR | 60° | 15 kt | 10000 meters | 30° | 86° | 6° | 42° | 22% | 1018 mb | 1,671 ft | |||
| 04-五月 | 10:00 | VFR | 80° | 14 kt | 10000 meters | 28° | 82° | 7° | 44° | 27% | 1018 mb | 1,431 ft | |||
| 04-五月 | 09:00 | VFR | 80° | 15 kt | 10000 meters | 26° | 78° | 7° | 44° | 30% | 1018 mb | 1,191 ft | |||
| 04-五月 | 08:00 | VFR | 90° | 13 kt | 10000 meters | 24° | 75° | 11° | 51° | 44% | 1018 mb | 951 ft | |||
| 04-五月 | 07:00 | VFR | 90° | 11 kt | 10000 meters | 23° | 73° | 14° | 57° | 57% | 1017 mb | 861 ft | |||
| 04-五月 | 06:00 | VFR | 110° | 9 kt | 10000 meters | 23° | 73° | 20° | 68° | 83% | 1017 mb | 861 ft | |||
| 04-五月 | 05:00 | VFR | 100° | 9 kt | 10000 meters | 23° | 73° | 20° | 68° | 83% | 1016 mb | 891 ft | |||
| 04-五月 | 04:00 | VFR | 150° | 7 kt | 10000 meters | 23° | 73° | 20° | 68° | 83% | 1016 mb | 891 ft | |||
| 04-五月 | 03:00 | VFR | 160° | 10 kt | 10000 meters | 23° | 73° | 21° | 69° | 89% | 1016 mb | 891 ft | |||
| 04-五月 | 02:00 | VFR | 180° | 7 kt | 10000 meters | 23° | 73° | 21° | 69° | 89% | 1016 mb | 891 ft | |||
| 04-五月 | 01:00 | VFR | 150° | 5 kt | 10000 meters | 23° | 73° | 21° | 69° | 89% | 1016 mb | 891 ft | |||
| 04-五月 | 00:00 | VFR | 350° | 3 kt | 10000 meters | 23° | 73° | 21° | 69° | 89% | 1016 mb | 891 ft | |||
| 03-五月 | 23:00 | VFR | 350° | 3 kt | 10000 meters | 24° | 75° | 21° | 69° | 83% | 1016 mb | 1,011 ft | |||
| 03-五月 | 22:00 | VFR | 350° | 4 kt | 10000 meters | 25° | 77° | 21° | 69° | 79% | 1016 mb | 1,131 ft | |||
| 03-五月 | 21:00 | VFR | 360° | 5 kt | 10000 meters | 25° | 77° | 21° | 69° | 79% | 1016 mb | 1,131 ft | |||
| 03-五月 | 20:00 | VFR | 360° | 6 kt | 10000 meters | 26° | 78° | 21° | 69° | 74% | 1015 mb | 1,280 ft | |||
| 03-五月 | 19:00 | VFR | 350° | 9 kt | 10000 meters | 26° | 78° | 20° | 68° | 70% | 1014 mb | 1,310 ft | |||
| 03-五月 | 18:00 | VFR | 350° | 9 kt | 10000 meters | 27° | 80° | 19° | 66° | 62% | 1014 mb | 1,430 ft | |||
| 03-五月 | 17:00 | VFR | 360° | 12 kt | 10000 meters | 28° | 82° | 18° | 64° | 55% | 1013 mb | 1,579 ft | |||
| 03-五月 | 16:00 | VFR | 10° | 13 kt | 10000 meters | 29° | 84° | 18° | 64° | 52% | 1013 mb | 1,699 ft | |||
| 03-五月 | 15:00 | VFR | 20° | 13 kt | 10000 meters | 30° | 86° | 17° | 62° | 46% | 1013 mb | 1,819 ft |
登入
| 您的瀏覽器不支援. 升級您的瀏覽器 |
